Litchfield, MN

12:58 PM CDT on July 28, 2016 (GMT -0500)
Litchfield Municipal

Weather History for KLJF - March, 2013

Change the Weather History Date:

Monday, March 18, 2013

  Actual Average Record
Temperature  
Mean Temperature 20 °F -  
Max Temperature 30 °F 40 °F 77 °F (2012)
Min Temperature 8 °F 22 °F -5 °F (1967)
Degree Days  
Heating Degree Days 45    
Moisture  
Dew Point 17 °F    
Average Humidity 88    
Maximum Humidity 100    
Minimum Humidity 73    
Precipitation  
Precipitation 0.00 in - - ()
Sea Level Pressure  
Sea Level Pressure 29.69 in    
Wind  
Wind Speed 17 mph (West)    
Max Wind Speed 24 mph    
Max Gust Speed 36 mph    
Visibility 5 miles    
Events Snow    
Averages and records for this station are not official NWS values.
T = Trace of Precipitation, MM = Missing Value Source: NWS Daily Summary

Daily Weather History Graph

Daily Weather History Graph

Search for Another Location

Airport or City:

Trip Planner

Search our weather history database for the weather conditions in past years. The results will help you decide how hot, cold, wet, or windy it might be!

Date:

Astronomy

Mar. 18, 2013 Rise Set
Actual Time 7:24 AM CDT 7:28 PM CDT
Civil Twilight 6:55 AM CDT 7:57 PM CDT
Nautical Twilight 6:20 AM CDT 8:32 PM CDT
Astronomical Twilight 5:45 AM CDT 9:07 PM CDT
Moon 11:09 AM CDT (3/18) 1:43 AM CDT (3/18)
Length of Visible Light 13h 02m
Length of Day
12h 03m
Waxing Crescent, 41% of the Moon is Illuminated
Mar 18
Waxing Crescent
Mar 19
First Quarter
Mar 27
Full
Apr 2
Last Quarter
Apr 10
New

Hourly Weather History & Observations

Time (CDT) Temp. Windchill Dew Point Humidity Pressure Visibility Wind Dir Wind Speed Gust Speed Precip Events Conditions
12:11 AM 28.4 °F 14.1 °F 24.8 °F 86% 29.73 in 7.0 mi SE 24.2 mph 31.1 mph N/A   Overcast
12:32 AM 28.4 °F 14.7 °F 24.8 °F 86% 29.71 in 10.0 mi SE 21.9 mph 29.9 mph N/A   Overcast
12:53 AM 28.4 °F 16.2 °F 26.6 °F 93% 29.71 in 2.5 mi SE 17.3 mph 25.3 mph N/A Snow Light Snow
1:12 AM 28.4 °F 16.6 °F 26.6 °F 93% 29.70 in 2.5 mi SE 16.1 mph 23.0 mph N/A Snow Light Snow
1:33 AM 28.4 °F 15.4 °F 26.6 °F 93% 29.68 in 1.5 mi SE 19.6 mph 27.6 mph N/A Snow Light Snow
1:53 AM 28.4 °F 17.0 °F 28.4 °F 100% 29.68 in 1.2 mi SE 15.0 mph 24.2 mph N/A Snow Light Snow
2:12 AM 28.4 °F 17.5 °F 28.4 °F 100% 29.68 in 0.8 mi SSE 13.8 mph 21.9 mph N/A Snow Snow
2:33 AM 28.4 °F 16.6 °F 28.4 °F 100% 29.67 in 0.8 mi SE 16.1 mph 23.0 mph N/A Snow Snow
2:53 AM 28.4 °F 20.4 °F 28.4 °F 100% 29.68 in 0.5 mi SSE 8.1 mph - N/A Snow Snow
3:12 AM 28.4 °F 19.1 °F 28.4 °F 100% 29.67 in 1.5 mi SSE 10.4 mph 17.3 mph N/A Snow Light Snow
3:33 AM 28.4 °F 19.7 °F 28.4 °F 100% 29.65 in 1.0 mi SSE 9.2 mph 17.3 mph N/A Snow Light Snow
3:53 AM 28.4 °F 19.7 °F 28.4 °F 100% 29.65 in 2.0 mi SSE 9.2 mph 16.1 mph N/A Snow Light Snow
4:12 AM 30.2 °F 21.9 °F 30.2 °F 100% 29.64 in 3.0 mi SSE 9.2 mph 21.9 mph N/A   Overcast
4:33 AM 30.2 °F 21.3 °F 30.2 °F 100% 29.62 in 3.0 mi SSE 10.4 mph 19.6 mph N/A   Overcast
4:53 AM 30.2 °F 21.9 °F 30.2 °F 100% 29.62 in 2.0 mi SSE 9.2 mph 16.1 mph N/A   Overcast
5:12 AM 30.2 °F 22.6 °F 30.2 °F 100% 29.61 in 2.0 mi SSE 8.1 mph - N/A   Overcast
5:33 AM 30.2 °F 22.6 °F 30.2 °F 100% 29.60 in 2.5 mi SSE 8.1 mph 17.3 mph N/A   Overcast
5:52 AM 30.2 °F 24.3 °F 30.2 °F 100% 29.59 in 2.5 mi South 5.8 mph 19.6 mph N/A   Overcast
6:09 AM 30.2 °F 22.6 °F 30.2 °F 100% 29.58 in 3.0 mi South 8.1 mph - N/A   Overcast
6:10 AM 30.2 °F 23.4 °F 30.2 °F 100% 29.58 in 2.5 mi South 6.9 mph - N/A   Overcast
7:13 AM 30.2 °F 21.3 °F 30.2 °F 100% 29.58 in 3.0 mi West 10.4 mph 16.1 mph N/A   Mist
7:33 AM 26.6 °F 16.2 °F 26.6 °F 100% 29.59 in 4.0 mi West 11.5 mph 20.7 mph N/A   Overcast
7:52 AM 26.6 °F 15.2 °F 24.8 °F 93% 29.60 in 4.0 mi West 13.8 mph 23.0 mph N/A   Overcast
8:13 AM 23.0 °F 10.1 °F 21.2 °F 93% 29.60 in 10.0 mi West 15.0 mph 26.5 mph N/A   Overcast
8:32 AM 21.2 °F 9.5 °F 19.4 °F 93% 29.60 in 10.0 mi West 11.5 mph 26.5 mph N/A   Overcast
8:53 AM 21.2 °F 7.3 °F 19.4 °F 93% 29.61 in 10.0 mi West 16.1 mph 27.6 mph N/A   Overcast
9:12 AM 19.4 °F 5.0 °F 17.6 °F 93% 29.61 in 10.0 mi West 16.1 mph 24.2 mph N/A   Overcast
9:32 AM 19.4 °F 5.5 °F 15.8 °F 86% 29.62 in 4.0 mi West 15.0 mph 29.9 mph N/A   Overcast
9:53 AM 19.4 °F 7.9 °F 15.8 °F 86% 29.63 in 3.0 mi West 10.4 mph 25.3 mph N/A Snow Light Snow
10:12 AM 17.6 °F 2.2 °F 14.0 °F 86% 29.64 in 4.0 mi WNW 17.3 mph 27.6 mph N/A   Overcast
10:32 AM 17.6 °F 3.2 °F 15.8 °F 93% 29.65 in 7.0 mi West 15.0 mph 24.2 mph N/A Snow Light Snow
10:53 AM 17.6 °F 3.2 °F 14.0 °F 86% 29.65 in 2.0 mi West 15.0 mph 26.5 mph N/A Snow Light Snow
11:12 AM 17.6 °F 1.7 °F 12.2 °F 79% 29.65 in 2.0 mi West 18.4 mph 28.8 mph N/A Snow Light Snow
11:32 AM 15.8 °F -0.6 °F 12.2 °F 86% 29.66 in 2.0 mi West 18.4 mph 25.3 mph N/A Snow Light Snow
11:53 AM 17.6 °F 2.7 °F 12.2 °F 79% 29.66 in 5.0 mi WNW 16.1 mph 29.9 mph N/A Snow Light Snow
12:13 PM 17.6 °F 0.1 °F 12.2 °F 79% 29.67 in 1.8 mi West 23.0 mph 31.1 mph N/A Snow Light Snow
12:32 PM 17.6 °F 1.3 °F 10.4 °F 73% 29.67 in 4.0 mi WNW 19.6 mph 32.2 mph N/A   Haze
12:53 PM 17.6 °F 0.1 °F 12.2 °F 79% 29.68 in 4.0 mi West 23.0 mph 32.2 mph N/A   Haze
1:13 PM 15.8 °F -0.6 °F 10.4 °F 79% 29.67 in 4.0 mi West 18.4 mph 31.1 mph N/A   Overcast
1:32 PM 15.8 °F -1.5 °F 10.4 °F 79% 29.67 in 7.0 mi West 20.7 mph 29.9 mph N/A   Overcast
1:53 PM 17.6 °F 0.9 °F 12.2 °F 79% 29.67 in 3.0 mi West 20.7 mph 28.8 mph N/A   Overcast
2:13 PM 15.8 °F -0.2 °F 12.2 °F 86% 29.67 in 4.0 mi West 17.3 mph 27.6 mph N/A   Overcast
2:32 PM 17.6 °F 1.3 °F 12.2 °F 79% 29.68 in 3.0 mi WNW 19.6 mph 28.8 mph N/A Snow Light Snow
2:53 PM 17.6 °F 1.3 °F 12.2 °F 79% 29.67 in 3.0 mi West 19.6 mph 32.2 mph N/A   Haze
3:13 PM 17.6 °F 0.9 °F 12.2 °F 79% 29.67 in - West 20.7 mph 26.5 mph N/A   Overcast
3:32 PM 15.8 °F -0.6 °F 10.4 °F 79% 29.68 in - WNW 18.4 mph 25.3 mph N/A   Overcast
3:53 PM 17.6 °F 1.7 °F 10.4 °F 73% 29.69 in 10.0 mi WNW 18.4 mph 33.4 mph N/A   Overcast
4:13 PM 15.8 °F -1.1 °F 10.4 °F 79% 29.70 in 4.0 mi WNW 19.6 mph 31.1 mph N/A Snow Light Snow
4:32 PM 17.6 °F 0.1 °F 10.4 °F 73% 29.70 in 7.0 mi WNW 23.0 mph 35.7 mph N/A   Overcast
4:53 PM 17.6 °F 0.5 °F 10.4 °F 73% 29.71 in 3.0 mi WNW 21.9 mph 31.1 mph N/A Snow Light Snow
5:13 PM 15.8 °F 0.3 °F 10.4 °F 79% 29.71 in 5.0 mi WNW 16.1 mph 29.9 mph N/A Snow Light Snow
5:32 PM 15.8 °F -0.2 °F 12.2 °F 86% 29.72 in 4.0 mi WNW 17.3 mph 26.5 mph N/A Snow Light Snow
5:53 PM 15.8 °F -1.1 °F 10.4 °F 79% 29.73 in 3.0 mi WNW 19.6 mph 29.9 mph N/A   Overcast
6:12 PM 15.8 °F -2.7 °F 10.4 °F 79% 29.74 in 4.0 mi WNW 24.2 mph 31.1 mph N/A   Overcast
6:33 PM 15.8 °F -1.1 °F 10.4 °F 79% 29.75 in 3.0 mi WNW 19.6 mph 28.8 mph N/A Snow Light Snow
6:52 PM 15.8 °F -2.3 °F 10.4 °F 79% 29.76 in 4.0 mi WNW 23.0 mph 29.9 mph N/A Snow Light Snow
7:13 PM 14.0 °F -3.9 °F 10.4 °F 86% 29.77 in 7.0 mi WNW 20.7 mph 28.8 mph N/A   Overcast
7:32 PM 14.0 °F -2.5 °F 10.4 °F 86% 29.78 in 7.0 mi WNW 17.3 mph 27.6 mph N/A   Overcast
7:52 PM 12.2 °F -5.3 °F 8.6 °F 85% 29.78 in 10.0 mi WNW 18.4 mph 27.6 mph N/A   Overcast
8:13 PM 12.2 °F -6.3 °F 8.6 °F 85% 29.79 in 10.0 mi WNW 20.7 mph 27.6 mph N/A   Overcast
8:32 PM 12.2 °F -6.7 °F 8.6 °F 85% 29.80 in 7.0 mi WNW 21.9 mph 29.9 mph N/A   Overcast
8:52 PM 12.2 °F -6.3 °F 8.6 °F 85% 29.81 in 7.0 mi WNW 20.7 mph 26.5 mph N/A   Overcast
9:13 PM 12.2 °F -5.8 °F 8.6 °F 85% 29.82 in 7.0 mi WNW 19.6 mph 29.9 mph N/A   Overcast
9:32 PM 12.2 °F -4.8 °F 8.6 °F 85% 29.83 in 7.0 mi WNW 17.3 mph 35.7 mph N/A   Mostly Cloudy
9:53 PM 12.2 °F -5.3 °F 8.6 °F 85% 29.84 in 10.0 mi WNW 18.4 mph 25.3 mph N/A   Overcast
10:13 PM 10.4 °F -8.6 °F 6.8 °F 85% 29.85 in 10.0 mi WNW 20.7 mph 26.5 mph N/A   Overcast
10:53 PM 10.4 °F -6.6 °F 6.8 °F 85% 29.86 in 10.0 mi WNW 16.1 mph 26.5 mph N/A   Scattered Clouds
11:13 PM 10.4 °F -7.7 °F 6.8 °F 85% 29.86 in 10.0 mi WNW 18.4 mph 25.3 mph N/A   Clear
11:32 PM 10.4 °F -7.2 °F 6.8 °F 85% 29.86 in 10.0 mi WNW 17.3 mph 23.0 mph N/A   Clear
11:53 PM 8.6 °F -10.0 °F 5.0 °F 85% 29.87 in 10.0 mi WNW 18.4 mph 24.2 mph N/A   Clear